Previsão horária em Cerhimahi

Hoje, 2 Agosto, Segunda-feira

Tempo Temperatura Precipitação Vento Pressão Humidade
00:00 +17°C° 0.1 mm 2 m/s 645 mmHg 78%
01:00 +17°C° 0 mm 2 m/s 645 mmHg 76%
02:00 +16°C° 0 mm 2 m/s 645 mmHg 74%
03:00 +16°C° 0 mm 2 m/s 644 mmHg 72%
04:00 +17°C° 0 mm 2 m/s 645 mmHg 71%
05:00 +17°C° 0 mm 2 m/s 645 mmHg 70%
06:00 +18°C° 0 mm 2 m/s 645 mmHg 69%
07:00 +20°C° 0 mm 2 m/s 646 mmHg 58%
08:00 +22°C° 0 mm 3 m/s 646 mmHg 48%
09:00 +25°C° 0 mm 3 m/s 647 mmHg 38%
10:00 +26°C° 0.1 mm 4 m/s 647 mmHg 35%
11:00 +26°C° 0.1 mm 4 m/s 647 mmHg 33%
12:00 +27°C° 0.1 mm 5 m/s 647 mmHg 30%
13:00 +27°C° 0.1 mm 5 m/s 647 mmHg 32%
14:00 +26°C° 0.1 mm 5 m/s 647 mmHg 34%
15:00 +25°C° 0.1 mm 5 m/s 647 mmHg 37%
16:00 +24°C° 0.1 mm 3 m/s 646 mmHg 42%
17:00 +23°C° 0.1 mm 2 m/s 646 mmHg 48%
18:00 +22°C° 0.1 mm 1 m/s 646 mmHg 54%
19:00 +20°C° 0 mm 2 m/s 646 mmHg 55%
20:00 +18°C° 0 mm 2 m/s 646 mmHg 56%
21:00 +17°C° 0 mm 3 m/s 646 mmHg 57%
22:00 +16°C° 0 mm 3 m/s 645 mmHg 55%
23:00 +16°C° 0 mm 3 m/s 645 mmHg 53%

Amanhã, 3 Agosto, Terça-feira

Tempo Temperatura Precipitação Vento Pressão Humidade
00:00 +16°C° 0 mm 3 m/s 645 mmHg 52%
01:00 +16°C° 0 mm 3 m/s 645 mmHg 52%
02:00 +16°C° 0 mm 2 m/s 645 mmHg 52%
03:00 +16°C° 0 mm 2 m/s 645 mmHg 52%
04:00 +16°C° 0 mm 2 m/s 645 mmHg 53%
05:00 +17°C° 0 mm 2 m/s 645 mmHg 54%
06:00 +17°C° 0 mm 2 m/s 646 mmHg 55%
07:00 +19°C° 0 mm 2 m/s 646 mmHg 47%
08:00 +23°C° 0 mm 2 m/s 647 mmHg 39%
09:00 +25°C° 0 mm 2 m/s 647 mmHg 32%
10:00 +26°C° 0 mm 2 m/s 647 mmHg 30%
11:00 +27°C° 0 mm 2 m/s 648 mmHg 28%
12:00 +28°C° 0 mm 3 m/s 648 mmHg 27%
13:00 +28°C° 0 mm 3 m/s 647 mmHg 28%
14:00 +27°C° 0 mm 3 m/s 647 mmHg 29%
15:00 +27°C° 0 mm 3 m/s 647 mmHg 30%
16:00 +26°C° 0 mm 3 m/s 647 mmHg 34%
17:00 +25°C° 0 mm 2 m/s 647 mmHg 39%
18:00 +24°C° 0 mm 2 m/s 647 mmHg 43%
19:00 +21°C° 0 mm 2 m/s 646 mmHg 45%
20:00 +20°C° 0 mm 2 m/s 646 mmHg 46%
21:00 +18°C° 0 mm 2 m/s 646 mmHg 47%
22:00 +18°C° 0 mm 2 m/s 646 mmHg 49%
23:00 +18°C° 0 mm 2 m/s 646 mmHg 51%

Depois de amanhã, 4 Agosto, Quarta-feira

Tempo Temperatura Precipitação Vento Pressão Humidade
00:00 +17°C° 0 mm 3 m/s 646 mmHg 53%
01:00 +17°C° 0 mm 3 m/s 646 mmHg 54%
02:00 +17°C° 0 mm 3 m/s 646 mmHg 55%
03:00 +17°C° 0 mm 2 m/s 646 mmHg 57%
04:00 +17°C° 0 mm 2 m/s 646 mmHg 57%
05:00 +18°C° 0 mm 2 m/s 647 mmHg 58%
06:00 +18°C° 0 mm 2 m/s 647 mmHg 59%
07:00 +21°C° 0 mm 2 m/s 647 mmHg 52%
08:00 +24°C° 0 mm 1 m/s 648 mmHg 45%
09:00 +26°C° 0 mm 1 m/s 649 mmHg 39%
10:00 +27°C° 0 mm 1 m/s 649 mmHg 36%
11:00 +28°C° 0 mm 2 m/s 649 mmHg 34%
12:00 +29°C° 0 mm 2 m/s 649 mmHg 31%
13:00 +29°C° 0 mm 2 m/s 648 mmHg 32%
14:00 +29°C° 0 mm 2 m/s 648 mmHg 32%
15:00 +29°C° 0 mm 2 m/s 648 mmHg 32%
16:00 +28°C° 0 mm 2 m/s 648 mmHg 37%
17:00 +27°C° 0 mm 2 m/s 648 mmHg 42%
18:00 +26°C° 0 mm 1 m/s 648 mmHg 47%
19:00 +24°C° 0 mm 2 m/s 647 mmHg 48%
20:00 +23°C° 0 mm 2 m/s 647 mmHg 49%
21:00 +20°C° 0 mm 2 m/s 647 mmHg 50%
22:00 +20°C° 0 mm 2 m/s 647 mmHg 52%
23:00 +19°C° 0 mm 2 m/s 647 mmHg 53%

5 Agosto, Quinta-feira

Tempo Temperatura Precipitação Vento Pressão Humidade
00:00 +19°C° 0 mm 2 m/s 647 mmHg 55%
01:00 +19°C° 0 mm 2 m/s 647 mmHg 55%
02:00 +19°C° 0 mm 2 m/s 647 mmHg 55%
03:00 +19°C° 0 mm 2 m/s 647 mmHg 56%
04:00 +19°C° 0 mm 2 m/s 647 mmHg 56%
05:00 +19°C° 0 mm 2 m/s 647 mmHg 57%
06:00 +20°C° 0 mm 2 m/s 647 mmHg 58%
07:00 +23°C° 0 mm 2 m/s 648 mmHg 52%
08:00 +25°C° 0 mm 2 m/s 648 mmHg 46%
09:00 +27°C° 0 mm 1 m/s 648 mmHg 39%
10:00 +28°C° 0.1 mm 2 m/s 648 mmHg 39%
11:00 +29°C° 0.1 mm 2 m/s 648 mmHg 38%
12:00 +29°C° 0.1 mm 3 m/s 648 mmHg 37%
13:00 +28°C° 0.3 mm 3 m/s 648 mmHg 44%
14:00 +27°C° 0.3 mm 3 m/s 648 mmHg 51%
15:00 +25°C° 0.3 mm 3 m/s 648 mmHg 57%
16:00 +24°C° 0.5 mm 2 m/s 647 mmHg 61%
17:00 +24°C° 0.5 mm 1 m/s 647 mmHg 65%
18:00 +23°C° 0.5 mm 1 m/s 647 mmHg 69%
19:00 +22°C° 0.4 mm 1 m/s 647 mmHg 72%
20:00 +20°C° 0.4 mm 2 m/s 647 mmHg 75%
21:00 +19°C° 0.4 mm 2 m/s 647 mmHg 78%
22:00 +19°C° 0 mm 2 m/s 647 mmHg 77%
23:00 +18°C° 0 mm 2 m/s 647 mmHg 76%

6 Agosto, Sexta-feira

Tempo Temperatura Precipitação Vento Pressão Humidade
00:00 +18°C° 0 mm 2 m/s 646 mmHg 74%
01:00 +18°C° 0 mm 2 m/s 646 mmHg 72%
02:00 +18°C° 0 mm 3 m/s 646 mmHg 70%
03:00 +18°C° 0 mm 3 m/s 645 mmHg 68%
04:00 +18°C° 0 mm 2 m/s 646 mmHg 66%
05:00 +19°C° 0 mm 2 m/s 646 mmHg 64%
06:00 +19°C° 0 mm 2 m/s 646 mmHg 63%
07:00 +21°C° 0 mm 2 m/s 646 mmHg 56%
08:00 +25°C° 0 mm 2 m/s 647 mmHg 49%
09:00 +27°C° 0 mm 1 m/s 647 mmHg 43%
10:00 +28°C° 0 mm 2 m/s 647 mmHg 41%
11:00 +29°C° 0 mm 2 m/s 647 mmHg 39%
12:00 +30°C° 0 mm 2 m/s 647 mmHg 38%
13:00 +30°C° 0 mm 3 m/s 647 mmHg 39%
14:00 +30°C° 0 mm 3 m/s 646 mmHg 40%
15:00 +29°C° 0 mm 3 m/s 646 mmHg 41%
16:00 +28°C° 0.1 mm 3 m/s 646 mmHg 46%
17:00 +27°C° 0.1 mm 2 m/s 646 mmHg 51%
18:00 +26°C° 0.1 mm 2 m/s 645 mmHg 57%
19:00 +24°C° 0.1 mm 2 m/s 645 mmHg 59%
20:00 +21°C° 0.1 mm 2 m/s 645 mmHg 61%
21:00 +19°C° 0.1 mm 3 m/s 645 mmHg 63%
22:00 +19°C° 0 mm 3 m/s 644 mmHg 61%
23:00 +19°C° 0 mm 3 m/s 644 mmHg 60%

7 Agosto, Sábado

Tempo Temperatura Precipitação Vento Pressão Humidade
00:00 +19°C° 0 mm 3 m/s 644 mmHg 58%
01:00 +19°C° 0 mm 3 m/s 644 mmHg 57%
02:00 +18°C° 0 mm 3 m/s 644 mmHg 55%
03:00 +18°C° 0 mm 3 m/s 644 mmHg 53%
04:00 +19°C° 0 mm 2 m/s 644 mmHg 53%
05:00 +19°C° 0 mm 2 m/s 644 mmHg 53%
06:00 +20°C° 0 mm 2 m/s 644 mmHg 52%
07:00 +23°C° 0 mm 2 m/s 645 mmHg 47%
08:00 +25°C° 0 mm 2 m/s 645 mmHg 42%
09:00 +28°C° 0 mm 2 m/s 646 mmHg 37%
10:00 +28°C° 0 mm 2 m/s 646 mmHg 37%
11:00 +29°C° 0 mm 2 m/s 646 mmHg 37%
12:00 +30°C° 0 mm 2 m/s 646 mmHg 37%
13:00 +30°C° 0.1 mm 2 m/s 646 mmHg 36%
14:00 +30°C° 0.1 mm 2 m/s 645 mmHg 36%
15:00 +31°C° 0.1 mm 2 m/s 645 mmHg 35%
16:00 +29°C° 0.1 mm 2 m/s 645 mmHg 43%
17:00 +28°C° 0.1 mm 1 m/s 645 mmHg 50%
18:00 +26°C° 0.1 mm 1 m/s 644 mmHg 57%
19:00 +25°C° 0.3 mm 1 m/s 644 mmHg 58%
20:00 +23°C° 0.3 mm 2 m/s 644 mmHg 60%
21:00 +20°C° 0.3 mm 3 m/s 644 mmHg 62%
22:00 +20°C° 0 mm 3 m/s 645 mmHg 60%
23:00 +20°C° 0 mm 3 m/s 645 mmHg 58%
Mostrar mais

Necessitamos do seu Consentimento

A Meteoprog e os seus Fornecedores de Serviços podem armazenar e aceder a dados pessoais como cookies, identificadores do dispositivo ou outras tecnologias semelhantes existentes no seu dispositivo e processar estes dados para personalizar conteúdos e anúncios, assim como funcionalidades nas redes sociais e análise de tráfego.

  • Armazenar e/ou aceder a informações no seu dispositivo

    Os cookies, identificadores do dispositivo ou outras informações podem ser armazenados ou acedidos no seu dispositivo, para os fins acima indicados.

  • Anúncios e conteúdos personalizados, medição de anúncios e conteúdos, dados sobre o público-alvo e desenvolvimento de produtos

    Os anúncios e os conteúdos podem ser personalizados com base num perfil. Podem ser adicionados dados adicionais para uma maior personalização dos anúncios e dos conteúdos. A eficácia dos anúncios e dos conteúdos pode ser medida. Podem ser obtidas informações sobre o público que visualizou os anúncios e os conteúdos. Estes dados podem ser usados para desenvolver ou melhorar sistemas, softwares ou a experiência do utilizador.

Ao clicar em "Eu concordo”, permitirá o uso de cookies, identificadores do dispositivo e web beacons mencionados ou outras tecnologias semelhantes. As configurações do navegador do seu dispositivo podem ser alteradas.

Para certos fins, podem ser invocados interesses legítimos ao invés de consentimento. Pode ler mais informação sobre este assunto na nossa Política de Privacidade e Cookies.